GSAT-16

Last updated on Nov. 15, 2019, 4:20 a.m. UTC

1 40332U 14078A   19318.48556131  .00000099  00000-0  00000+0 0  9994
2 40332   0.0511 271.4205 0004137 224.6926 147.0433  1.00271078 18128
UTC
Height (km)
Latitude
Longitude
Inclination
Orbital Period
UTC large
Height (km)
Speed (km/s)
/
Latitude / Longitude
Inclination (degrees)
Orbital Period (minutes)
Azimuth
Elevation
Range (km)
Doppler Factor
iOS Compass Heading
iOS Angle

Next 30 passes for location: Hong Kong

Rise time Rise Azimuth (degrees) Set time Set Azimuth (degrees) Duration Max altitude (degrees)

No matching passes for this satellites